Overview Statistics Trail Chart Weather Telemetry Raw packets
 

This is the latest recevied weather packets stored in our database for station/object SQ5JP-4. If no packets are shown the sender has not sent any weather packets the latest 10 day(s).

<< 26 27 28 29 30 31 32 >>
Time Temp. Humidity Pressure Rain* Wind** Luminosity Snow
1787933923 22.22° C 76% 999.9 hPa - - - -
1787933023 22.22° C 76% 999.9 hPa - - - -
1787932123 22.78° C 74% 1000.2 hPa - - - -
1787931223 22.78° C 72% 1000.4 hPa - - - -
1787930323 23.33° C 61% 1000.8 hPa - - - -
1787929423 23.89° C 72% 1000.8 hPa - - - -
1787928523 23.89° C 58% 1001 hPa - - - -
1787927623 25° C 52% 1001.2 hPa - - - -
1787926722 25.56° C 49% 1001.2 hPa - - - -
1787925823 25.56° C 52% 1001.2 hPa - - - -
1787924922 25° C 47% 1001.3 hPa - - - -
1787924022 27.78° C 47% 1001.6 hPa - - - -
1787922229 27.22° C 56% 1001.9 hPa - - - -
1787921324 26.11° C 61% 1002.2 hPa - - - -
1787920424 25.56° C 77% 1002.4 hPa - - - -
1787919524 24.44° C 61% 1002.6 hPa - - - -
1787918624 25° C 67% 1002.9 hPa - - - -
1787917724 25.56° C 70% 1003.1 hPa - - - -
1787916824 25° C 65% 1003.3 hPa - - - -
1787915924 25° C 71% 1003.4 hPa - - - -
1787915023 25° C 70% 1003.4 hPa - - - -
1787914123 24.44° C 72% 1003.7 hPa - - - -
1787913223 23.89° C 88% 1003.8 hPa - - - -
1787912323 23.33° C 74% 1004 hPa - - - -
1787911423 22.22° C 76% 1004.5 hPa - - - -

* Rain since midnight (hover to see other rain measurements)
** Current wind speed in m/s (hover to see current wind gust speed)